Weather History for Rifle, CO

Change the Weather History Date:

Thursday, September 22, 2011

  Actual Average Record
Temperature  
Mean Temperature 58 °F 59 °F  
Max Temperature 80 °F 75 °F 90 °F (1966)
Min Temperature 39 °F 42 °F 26 °F (1957)
Degree Days  
Heating Degree Days 6 6  
Month to date heating degree days 73  
Since 1 July heating degree days 80  
Cooling Degree Days 0 0  
Month to date cooling degree days 22  
Year to date cooling degree days 538  
Growing Degree Days 8 (Base 50)    
Moisture  
Dew Point 32 °F    
Average Humidity 43    
Maximum Humidity 73    
Minimum Humidity 17    
Precipitation  
Precipitation 0.00 in 0.05 in 0.69 in (2013)
Month to date precipitation 1.12  
Year to date precipitation 10.09  
Sea Level Pressure  
Sea Level Pressure 30.16 in    
Wind  
Wind Speed 2 mph (ESE)    
Max Wind Speed 9 mph    
Max Gust Speed -    
Visibility 10 miles    
Events      
T = Trace of Precipitation, MM = Missing Value Source: NWS Daily Summary

Daily Weather History Graph

Daily Weather History Graph

Search for Another Location

Airport:

Trip Planner

Search our weather history database for the weather conditions in past years. The results will help you decide how hot, cold, wet, or windy it might be!

Date:

Astronomy

Sep. 22, 2011 Rise Set
Actual Time 6:58 AM MDT 7:08 PM MDT
Civil Twilight 6:31 AM MDT 7:35 PM MDT
Nautical Twilight 6:00 AM MDT 8:06 PM MDT
Astronomical Twilight 5:28 AM MDT 8:38 PM MDT
Moon 1:23 AM MDT (9/22) 4:01 PM MDT (9/22)
Length of Visible Light 13h 03m
Length of Day
12h 09m
Waning Crescent, 28% of the Moon is Illuminated
Sep 22
Waning Crescent
Sep 27
New
Oct 3
First Quarter
Oct 11
Full
Oct 19
Last Quarter

Hourly Weather History & Observations

Time (MDT) Temp. Windchill Dew Point Humidity Pressure Visibility Wind Dir Wind Speed Gust Speed Precip Events Conditions
12:53 AM 48.9 °F - 33.1 °F 54% 30.11 in 10.0 mi Calm Calm - N/A   Clear
1:53 AM 46.9 °F - 34.0 °F 61% 30.12 in 10.0 mi ESE 4.6 mph - N/A   Clear
2:53 AM 45.0 °F 43.5 °F 33.1 °F 63% 30.12 in 10.0 mi ESE 3.5 mph - N/A   Clear
3:53 AM 45.0 °F - 33.1 °F 63% 30.13 in 10.0 mi Calm Calm - N/A   Clear
4:53 AM 43.0 °F - 33.1 °F 68% 30.15 in 10.0 mi Calm Calm - N/A   Clear
5:53 AM 41.0 °F 38.0 °F 32.0 °F 70% 30.19 in 10.0 mi ESE 4.6 mph - N/A   Clear
6:53 AM 39.0 °F - 30.9 °F 73% 30.22 in 10.0 mi Calm Calm - N/A   Clear
7:53 AM 44.1 °F - 33.1 °F 65% 30.24 in 10.0 mi Calm Calm - N/A   Clear
8:53 AM 48.9 °F - 34.0 °F 56% 30.26 in 10.0 mi Calm Calm - N/A   Clear
10:53 AM 63.0 °F - 32.0 °F 31% 30.22 in 10.0 mi ENE 3.5 mph - N/A   Clear
11:53 AM 66.9 °F - 30.9 °F 26% 30.20 in 10.0 mi Calm Calm - N/A   Clear
12:53 PM 71.1 °F - 32.0 °F 24% 30.17 in 10.0 mi North 3.5 mph - N/A   Clear
1:53 PM 75.0 °F - 28.9 °F 18% 30.14 in 10.0 mi Calm Calm - N/A   Clear
2:53 PM 75.9 °F - 30.0 °F 19% 30.12 in 10.0 mi North 5.8 mph - N/A   Clear
3:53 PM 78.1 °F - 30.0 °F 17% 30.09 in 10.0 mi North 4.6 mph - N/A   Clear
4:53 PM 78.1 °F - 28.9 °F 17% 30.09 in 10.0 mi Variable 5.8 mph - N/A   Clear
6:53 PM 73.0 °F - 32.0 °F 22% 30.13 in 10.0 mi SSW 6.9 mph - N/A   Clear
7:53 PM 63.0 °F - 34.0 °F 34% 30.16 in 10.0 mi South 3.5 mph - N/A   Clear
8:53 PM 60.1 °F - 33.1 °F 36% 30.18 in 10.0 mi South 9.2 mph - N/A   Clear
10:53 PM 53.1 °F - 34.0 °F 48% 30.20 in 10.0 mi SE 3.5 mph - N/A   Clear
11:53 PM 53.1 °F - 34.0 °F 48% 30.21 in 10.0 mi SE 8.1 mph - N/A   Clear